| time (UTC) | temp C | wind direction | speed KPH | gust KPH | rain 1hr cm | rain 24hr cm | rain mn cm | humidity % | barometer mb |
| 20260504044541 | 12 | 360 | 17.7 | 29.0 | 0.00 | 0.00 | 0.00 | 36 | 1009.8 |
| 20260504043038 | 13 | 360 | 22.5 | 32.2 | 0.00 | 0.00 | 0.00 | 35 | 1009.4 |
| 20260504041536 | 13 | 360 | 25.7 | 38.6 | 0.00 | 0.00 | 0.00 | 34 | 1008.9 |
| 20260504040036 | 14 | 360 | 25.7 | 32.2 | 0.00 | 0.00 | 0.00 | 37 | 1008.1 |
| 20260504034536 | 13 | 360 | 8.0 | 25.7 | 0.00 | 0.00 | 0.00 | 39 | 1007.4 |
| 20260504033038 | 14 | 360 | 9.7 | 14.5 | 0.00 | 0.00 | 0.00 | 37 | 1006.9 |
| 20260504031534 | 15 | 360 | 9.7 | 16.1 | 0.00 | 0.00 | 0.00 | 35 | 1006.7 |
| 20260504030033 | 15 | 360 | 9.7 | 19.3 | 0.00 | 0.00 | 0.00 | 34 | 1006.6 |
| 20260504024533 | 16 | 360 | 14.5 | 20.9 | 0.00 | 0.00 | 0.00 | 33 | 1006.5 |
| 20260504023033 | 17 | 360 | 16.1 | 27.4 | 0.00 | 0.00 | 0.00 | 31 | 1006.4 |
| 20260504021531 | 17 | 360 | 17.7 | 32.2 | 0.00 | 0.00 | 0.00 | 30 | 1006.3 |
| 20260504020031 | 18 | 360 | 16.1 | 24.1 | 0.00 | 0.00 | 0.00 | 28 | 1006.1 |
| 20260504014545 | 19 | 360 | 14.5 | 27.4 | 0.00 | 0.00 | 0.00 | 26 | 1006.0 |
| 20260504013039 | 21 | 360 | 22.5 | 32.2 | 0.00 | 0.00 | 0.00 | 23 | 1005.9 |
| 20260504011530 | 21 | 360 | 19.3 | 32.2 | 0.00 | 0.00 | 0.00 | 22 | 1005.9 |
| 20260504010028 | 22 | 360 | 16.1 | 35.4 | 0.00 | 0.00 | 0.00 | 23 | 1005.8 |
| 20260504004529 | 22 | 360 | 19.3 | 30.6 | 0.00 | 0.00 | 0.00 | 24 | 1005.9 |
| 20260504003026 | 22 | 360 | 19.3 | 33.8 | 0.00 | 0.00 | 0.00 | 25 | 1006.1 |
| 20260504001525 | 22 | 360 | 19.3 | 35.4 | 0.00 | 0.00 | 0.00 | 23 | 1006.2 |
| 20260504000037 | 22 | 360 | 22.5 | 37.0 | 0.00 | 0.00 | 0.00 | 24 | 1006.3 |
| 20260503234522 | 22 | 360 | 25.7 | 35.4 | 0.00 | 0.00 | 0.00 | 22 | 1006.4 |
| 20260503233024 | 22 | 360 | 24.1 | 32.2 | 0.00 | 0.00 | 0.00 | 23 | 1006.5 |
| 20260503231519 | 22 | 360 | 25.7 | 38.6 | 0.00 | 0.00 | 0.00 | 22 | 1006.5 |
| 20260503230018 | 23 | 360 | 19.3 | 32.2 | 0.00 | 0.00 | 0.00 | 21 | 1006.6 |
| 20260503224516 | 22 | 360 | 19.3 | 37.0 | 0.00 | 0.00 | 0.00 | 21 | 1006.9 |
| 20260503223015 | 22 | 360 | 20.9 | 40.2 | 0.00 | 0.00 | 0.00 | 21 | 1006.9 |
| 20260503221513 | 22 | 360 | 32.2 | 40.2 | 0.00 | 0.00 | 0.00 | 21 | 1007.1 |
| 20260503220014 | 22 | 360 | 24.1 | 33.8 | 0.00 | 0.00 | 0.00 | 20 | 1007.3 |
| 20260503214521 | 22 | 360 | 24.1 | 40.2 | 0.00 | 0.00 | 0.00 | 21 | 1007.5 |
| 20260503213006 | 22 | 360 | 22.5 | 37.0 | 0.00 | 0.00 | 0.00 | 21 | 1007.9 |
| 20260503211506 | 22 | 360 | 24.1 | 35.4 | 0.00 | 0.00 | 0.00 | 20 | 1008.0 |
| 20260503210009 | 22 | 360 | 20.9 | 29.0 | 0.00 | 0.00 | 0.00 | 21 | 1008.3 |
| 20260503204504 | 22 | 360 | 22.5 | 35.4 | 0.00 | 0.00 | 0.00 | 21 | 1008.5 |
| 20260503203001 | 22 | 360 | 25.7 | 45.1 | 0.00 | 0.00 | 0.00 | 22 | 1008.7 |
| 20260503201600 | 21 | 360 | 17.7 | 33.8 | 0.00 | 0.00 | 0.00 | 22 | 1008.7 |
| 20260503200058 | 22 | 360 | 19.3 | 32.2 | 0.00 | 0.00 | 0.00 | 21 | 1009.0 |
| 20260503194614 | 21 | 360 | 24.1 | 35.4 | 0.00 | 0.00 | 0.00 | 23 | 1009.3 |
| 20260503193053 | 21 | 360 | 24.1 | 32.2 | 0.00 | 0.00 | 0.00 | 22 | 1009.6 |
| 20260503191554 | 21 | 360 | 20.9 | 32.2 | 0.00 | 0.00 | 0.00 | 22 | 1009.7 |
| 20260503190059 | 20 | 360 | 17.7 | 32.2 | 0.00 | 0.00 | 0.00 | 23 | 1009.9 |
| 20260503184549 | 20 | 360 | 14.5 | 32.2 | 0.00 | 0.00 | 0.00 | 23 | 1010.2 |
| 20260503183051 | 20 | 360 | 20.9 | 32.2 | 0.00 | 0.00 | 0.00 | 24 | 1010.2 |
| 20260503181540 | 20 | 360 | 19.3 | 33.8 | 0.00 | 0.00 | 0.00 | 23 | 1010.5 |
| 20260503180039 | 20 | 360 | 19.3 | 33.8 | 0.00 | 0.00 | 0.00 | 25 | 1010.6 |
| 20260503174536 | 20 | 360 | 22.5 | 35.4 | 0.00 | 0.00 | 0.00 | 25 | 1010.9 |
| 20260503173056 | 20 | 360 | 25.7 | 32.2 | 0.00 | 0.00 | 0.00 | 24 | 1011.1 |
| 20260503171535 | 20 | 360 | 19.3 | 30.6 | 0.00 | 0.00 | 0.00 | 27 | 1011.2 |
| 20260503081525 | 3 | 360 | 1.6 | 6.4 | 0.00 | 0.00 | 0.00 | 70 | 1014.4 |
| 20260503071523 | 3 | 360 | 3.2 | 14.5 | 0.00 | 0.00 | 0.00 | 66 | 1014.7 |